Weather History for Melbourne Airport, VC

Change the Weather History Date:

Friday, November 22, 2013

  Actual Average Record
Temperature  
Mean Temperature 61 °F -  
Max Temperature 69 °F 72 °F 91 °F (1997)
Min Temperature 53 °F 50 °F 42 °F (1996)
Degree Days  
Heating Degree Days 4    
Growing Degree Days 11 (Base 50)    
Moisture  
Dew Point 49 °F    
Average Humidity 68    
Maximum Humidity 94    
Minimum Humidity 28    
Precipitation  
Precipitation 0.00 in 0.07 in - ()
Sea Level Pressure  
Sea Level Pressure 29.77 in    
Wind  
Wind Speed 9 mph ()    
Max Wind Speed 18 mph    
Max Gust Speed -    
Visibility 7.2 miles    
Events      
Averages and records for this station are not official NWS values.
T = Trace of Precipitation, MM = Missing Value Source: Averaged Metar Reports

Daily Weather History Graph

Daily Weather History Graph

Search for Another Location

Airport:

Trip Planner

Search our weather history database for the weather conditions in past years. The results will help you decide how hot, cold, wet, or windy it might be!

Date:

Astronomy

Nov. 22, 2013 Rise Set
Actual Time 5:56 AM EST 8:17 PM EST
Civil Twilight 5:26 AM EST 8:47 PM EST
Nautical Twilight 4:50 AM EST 9:24 PM EST
Astronomical Twilight 4:09 AM EST 10:04 PM EST
Moon 11:48 PM EST (11/22) 9:32 AM EST (11/22)
Length of Visible Light 15h 20m
Length of Day
14h 21m
Waning Gibbous, 83% of the Moon is Illuminated
Nov 22
Waning Gibbous
Nov 26
Last Quarter
Dec 3
New
Dec 10
First Quarter
Dec 17
Full

Hourly Weather History & Observations

Time (EST) Temp. Dew Point Humidity Pressure Visibility Wind Dir Wind Speed Gust Speed Precip Events Conditions
12:00 AM 56 °F 52 °F 83% 29.81 in 19 mi SSW 6.9 mph - -   Partly Cloudy
12:00 AM 55.4 °F 51.8 °F 88% 29.80 in 6.2 mi SSW 6.9 mph - N/A   Mostly Cloudy
12:30 AM 57.2 °F 51.8 °F 82% 29.80 in 6.2 mi SSW 6.9 mph - N/A   Mostly Cloudy
12:34 AM 57.2 °F 51.8 °F 82% 29.80 in 6.2 mi SSW 6.9 mph - N/A   Mostly Cloudy
1:00 AM 56 °F 52 °F 83% 29.81 in - SW 6.9 mph - -  
1:00 AM 55.4 °F 51.8 °F 88% 29.80 in 6.2 mi SW 6.9 mph - N/A   Mostly Cloudy
1:24 AM 55.4 °F 51.8 °F 88% 29.80 in 6.2 mi SW 8.1 mph - N/A   Mostly Cloudy
1:30 AM 55.4 °F 51.8 °F 88% 29.80 in 6.2 mi SW 8.1 mph - N/A   Mostly Cloudy
2:00 AM 55 °F 51 °F 83% 29.80 in - SSW 5.8 mph - -  
2:00 AM 55.4 °F 51.8 °F 88% 29.80 in 6.2 mi SSW 5.8 mph - N/A   Mostly Cloudy
2:30 AM 55.4 °F 51.8 °F 88% 29.80 in 6.2 mi WSW 3.5 mph - N/A   Mostly Cloudy
3:00 AM 54 °F 51 °F 88% 29.79 in 19 mi WSW 5.8 mph - -   Partly Cloudy
3:02 AM 55.4 °F 51.8 °F 88% 29.77 in 6.2 mi WSW 5.8 mph - N/A   Mostly Cloudy
3:30 AM 55.4 °F 51.8 °F 88% 29.77 in 6.2 mi WSW 6.9 mph - N/A   Mostly Cloudy
4:00 AM 54 °F 51 °F 88% 29.78 in - WSW 8.1 mph - -  
4:00 AM 55.4 °F 51.8 °F 88% 29.77 in 6.2 mi WSW 8.1 mph - N/A   Mostly Cloudy
4:30 AM 53.6 °F 51.8 °F 94% 29.77 in 6.2 mi WSW 9.2 mph - N/A   Mostly Cloudy
5:00 AM 53 °F 51 °F 89% 29.78 in - SW 6.9 mph - -  
5:02 AM 53.6 °F 50.0 °F 88% 29.77 in 6.2 mi SW 6.9 mph - N/A   Mostly Cloudy
5:30 AM 53.6 °F 50.0 °F 88% 29.77 in 6.2 mi WSW 8.1 mph - N/A   Mostly Cloudy
6:00 AM 54 °F 50 °F 82% 29.79 in 19 mi WSW 10.4 mph - -   Partly Cloudy
6:00 AM 53.6 °F 50.0 °F 88% 29.77 in 6.2 mi WSW 10.4 mph - N/A   Mostly Cloudy
6:30 AM 53.6 °F 50.0 °F 88% 29.80 in 6.2 mi WSW 9.2 mph - N/A   Mostly Cloudy
7:00 AM 55 °F 49 °F 76% 29.80 in - West 8.1 mph - -  
7:00 AM 55.4 °F 50.0 °F 82% 29.80 in 6.2 mi West 8.1 mph - N/A   Mostly Cloudy
7:30 AM 55.4 °F 50.0 °F 82% 29.77 in 6.2 mi West 10.4 mph - N/A   Mostly Cloudy
8:00 AM 56 °F 49 °F 69% 29.80 in - WSW 10.4 mph - -  
8:00 AM 55.4 °F 48.2 °F 77% 29.80 in 6.2 mi WSW 10.4 mph - N/A   Mostly Cloudy
8:30 AM 57.2 °F 48.2 °F 72% 29.80 in 6.2 mi WSW 10.4 mph - N/A   Mostly Cloudy
9:00 AM 58 °F 47 °F 57% 29.80 in 25 mi WSW 11.5 mph - -   Partly Cloudy
9:00 AM 57.2 °F 46.4 °F 67% 29.80 in 6.2 mi WSW 11.5 mph - N/A   Mostly Cloudy
9:30 AM 59.0 °F 46.4 °F 63% 29.80 in 6.2 mi WSW 10.4 mph - N/A   Mostly Cloudy
10:00 AM 60 °F 46 °F 50% 29.80 in - West 9.2 mph - -  
10:00 AM 60.8 °F 46.4 °F 59% 29.80 in 6.2 mi West 9.2 mph - N/A   Mostly Cloudy
10:30 AM 59.0 °F 46.4 °F 63% 29.80 in 6.2 mi WSW 9.2 mph - N/A   Mostly Cloudy
11:00 AM 60 °F 46 °F 50% 29.79 in - WNW 6.9 mph - -  
11:00 AM 60.8 °F 46.4 °F 59% 29.77 in 6.2 mi WNW 6.9 mph - N/A   Mostly Cloudy
11:30 AM 60.8 °F 44.6 °F 55% 29.77 in 6.2 mi NW 5.8 mph - N/A   Scattered Clouds
12:00 PM 61 °F 46 °F 46% 29.79 in 25 mi WSW 6.9 mph - -   Partly Cloudy
12:00 PM 60.8 °F 46.4 °F 59% 29.77 in 6.2 mi WSW 6.9 mph - N/A   Mostly Cloudy
12:30 PM 62.6 °F 46.4 °F 55% 29.77 in 6.2 mi WSW 6.9 mph - N/A   Mostly Cloudy
1:00 PM 64 °F 47 °F 44% 29.77 in - WSW 11.5 mph - -  
1:00 PM 64.4 °F 48.2 °F 56% 29.77 in 6.2 mi WSW 11.5 mph - N/A   Scattered Clouds
1:30 PM 64.4 °F 46.4 °F 52% 29.77 in 6.2 mi West 9.2 mph - N/A   Scattered Clouds
2:00 PM 67 °F 45 °F 34% 29.75 in - West 15.0 mph - -  
2:00 PM 66.2 °F 44.6 °F 46% 29.74 in 6.2 mi West 15.0 mph - N/A   Mostly Cloudy
2:30 PM 68.0 °F 46.4 °F 46% 29.74 in 6.2 mi WSW 12.7 mph - N/A   Scattered Clouds
3:00 PM 69 °F 46 °F 32% 29.74 in 25 mi West 15.0 mph - -   Partly Cloudy
3:00 PM 69.8 °F 46.4 °F 43% 29.74 in 6.2 mi West 15.0 mph - N/A   Scattered Clouds
3:30 PM 68.0 °F 42.8 °F 40% 29.74 in 6.2 mi WSW 18.4 mph - N/A   Scattered Clouds
4:00 PM 68 °F 43 °F 28% 29.73 in - SW 17.3 mph - -  
4:00 PM 68.0 °F 42.8 °F 40% 29.71 in 6.2 mi SW 17.3 mph - N/A   Scattered Clouds
4:30 PM 68.0 °F 44.6 °F 43% 29.71 in 6.2 mi SW 17.3 mph - N/A   Scattered Clouds
5:00 PM 69 °F 47 °F 34% 29.73 in - WSW 17.3 mph - -  
5:00 PM 68.0 °F 46.4 °F 46% 29.71 in 6.2 mi WSW 17.3 mph - N/A   Scattered Clouds
5:30 PM 68.0 °F 46.4 °F 46% 29.71 in 6.2 mi WSW 16.1 mph - N/A   Scattered Clouds
6:00 PM 66 °F 47 °F 40% 29.73 in 25 mi WSW 18.4 mph - -   Partly Cloudy
6:00 PM 66.2 °F 48.2 °F 52% 29.71 in 6.2 mi WSW 18.4 mph - N/A   Scattered Clouds
6:30 PM 64.4 °F 48.2 °F 56% 29.74 in 6.2 mi SW 17.3 mph - N/A   Scattered Clouds
7:00 PM 64 °F 49 °F 47% 29.75 in - WSW 18.4 mph - -  
7:00 PM 64.4 °F 48.2 °F 56% 29.74 in 6.2 mi WSW 18.4 mph - N/A   Scattered Clouds
7:30 PM 62.6 °F 48.2 °F 59% 29.74 in 6.2 mi SW 15.0 mph - N/A   Scattered Clouds
8:00 PM 59 °F 49 °F 62% 29.76 in - WSW 12.7 mph - -  
8:00 PM 59.0 °F 50.0 °F 72% 29.74 in 6.2 mi WSW 12.7 mph - N/A   Scattered Clouds
8:30 PM 59.0 °F 50.0 °F 72% 29.77 in 6.2 mi West 8.1 mph - N/A   Scattered Clouds
9:00 PM 57 °F 51 °F 72% 29.77 in 19 mi WSW 8.1 mph - -   Partly Cloudy
9:00 PM 57.2 °F 50.0 °F 77% 29.77 in 6.2 mi WSW 8.1 mph - N/A   Scattered Clouds
9:30 PM 55.4 °F 50.0 °F 82% 29.77 in 6.2 mi West 8.1 mph - N/A   Partly Cloudy
10:00 PM 54 °F 50 °F 80% 29.78 in - West 8.1 mph - -  
10:00 PM 53.6 °F 50.0 °F 88% 29.77 in - West 8.1 mph - N/A   Clear
10:30 PM 55.4 °F 50.0 °F 82% 29.77 in - NW 5.8 mph - N/A   Clear
11:00 PM 54 °F 49 °F 77% 29.78 in - WNW 4.6 mph - -  
11:00 PM 53.6 °F 48.2 °F 82% 29.77 in - WNW 4.6 mph - N/A   Clear
11:30 PM 53.6 °F 48.2 °F 82% 29.77 in - WNW 6.9 mph - N/A   Clear